Weather History for Gulkana, AK

Change the Weather History Date:

Wednesday, December 19, 2012

  Actual Average Record
Temperature  
Mean Temperature -32 °F -  
Max Temperature -22 °F 10 °F 43 °F (1985)
Min Temperature -42 °F -7 °F -51 °F (1980)
Degree Days  
Heating Degree Days 97    
Moisture  
Dew Point -33 °F    
Average Humidity 72    
Maximum Humidity 81    
Minimum Humidity 53    
Precipitation  
Precipitation 0.00 in - - ()
Snow  
Snow 0.00 in - - ()
Snow Depth 10.00 in    
Sea Level Pressure  
Sea Level Pressure 29.97 in    
Wind  
Wind Speed 1 mph (North)    
Max Wind Speed 5 mph    
Max Gust Speed -    
Visibility 10 miles    
Events      
Averages and records for this station are not official NWS values.
T = Trace of Precipitation, MM = Missing Value Source: NWS Daily Summary

Daily Weather History Graph

Daily Weather History Graph

Search for Another Location

Airport:

Trip Planner

Search our weather history database for the weather conditions in past years. The results will help you decide how hot, cold, wet, or windy it might be!

Date:

Astronomy

Dec. 19, 2012 Rise Set
Actual Time 10:06 AM AKST 3:11 PM AKST
Civil Twilight 9:00 AM AKST 4:18 PM AKST
Nautical Twilight 7:57 AM AKST 5:21 PM AKST
Astronomical Twilight 7:01 AM AKST 6:16 PM AKST
Moon 12:05 PM AKST (12/19) No Moon Set
Length of Visible Light 7h 18m
Length of Day
5h 05m
Waxing Crescent, 46% of the Moon is Illuminated
Dec 19
Waxing Crescent
Dec 19
First Quarter
Dec 28
Full
Jan 4
Last Quarter
Jan 11
New

Hourly Weather History & Observations

Time (AKST) Temp. Windchill Dew Point Humidity Pressure Visibility Wind Dir Wind Speed Gust Speed Precip Events Conditions
12:53 AM -27.9 °F - -34.1 °F 73% 29.85 in 10.0 mi Calm Calm - N/A   Clear
1:53 AM -29.0 °F - -34.1 °F 77% 29.86 in 10.0 mi Calm Calm - N/A   Clear
3:53 AM -31.0 °F -43.3 °F - N/A% 29.88 in 10.0 mi NNE 3.5 mph - N/A   Clear
4:53 AM -34.1 °F - - N/A% 29.89 in 10.0 mi Calm Calm - N/A   Clear
5:53 AM -34.1 °F - - N/A% 29.89 in 10.0 mi Calm Calm - N/A   Clear
5:58 AM -34.1 °F - - N/A% 29.59 in 10.0 mi Calm Calm - N/A   Clear
6:53 AM -36.0 °F - - N/A% 29.91 in 10.0 mi Calm Calm - N/A   Clear
7:53 AM -36.0 °F - - N/A% 29.93 in 10.0 mi Calm Calm - N/A   Clear
8:53 AM -38.0 °F -51.3 °F - N/A% 29.94 in 10.0 mi WNW 3.5 mph - N/A   Partly Cloudy
9:53 AM -38.9 °F -52.3 °F - N/A% 29.96 in 10.0 mi North 3.5 mph - N/A   Partly Cloudy
10:53 AM -36.9 °F - - N/A% 29.96 in 10.0 mi Calm Calm - N/A   Partly Cloudy
11:53 AM -33.0 °F -48.4 °F - N/A% 29.98 in 10.0 mi North 4.6 mph - N/A   Partly Cloudy
12:53 PM -29.9 °F -42.0 °F - N/A% 29.99 in 10.0 mi NW 3.5 mph - N/A   Partly Cloudy
1:53 PM -29.0 °F -41.0 °F -35.0 °F 73% 30.00 in 10.0 mi SE 3.5 mph - N/A   Partly Cloudy
2:53 PM -27.0 °F -41.5 °F -34.1 °F 69% 30.02 in 10.0 mi North 4.6 mph - N/A   Partly Cloudy
3:53 PM -29.9 °F - - N/A% 30.04 in 10.0 mi Calm Calm - N/A   Partly Cloudy
4:53 PM -31.0 °F - - N/A% 30.06 in 10.0 mi Calm Calm - N/A   Clear
5:53 PM -27.9 °F - -33.0 °F 77% 30.06 in 10.0 mi Calm Calm - N/A   Clear
6:53 PM -27.9 °F - -34.1 °F 73% 30.09 in 10.0 mi Calm Calm - N/A   Clear
7:53 PM -26.0 °F -40.2 °F -33.0 °F 69% 30.11 in 10.0 mi SSE 4.6 mph - N/A   Clear
8:53 PM -29.0 °F -41.0 °F -33.0 °F 81% 30.14 in 10.0 mi Variable 3.5 mph - N/A   Clear
9:26 PM -24.0 °F -35.2 °F -29.9 °F 74% 29.84 in 10.0 mi South 3.5 mph - N/A   Clear
9:53 PM -27.9 °F -39.8 °F -33.0 °F 77% 30.15 in 10.0 mi Variable 3.5 mph - N/A   Clear
10:53 PM - - - N/A% 29.86 in - North - - N/A   Unknown
11:53 PM -27.9 °F - -32.1 °F 81% 30.19 in 10.0 mi Calm Calm - N/A   Clear